TimeEDT,TemperatureF,Dew PointF,Humidity,Sea Level PressureIn,VisibilityMPH,Wind Direction,Wind SpeedMPH,Gust SpeedMPH,PrecipitationIn,Events,Conditions,WindDirDegrees,DateUTC
12:58 AM,52.3,46.9,82,29.96,10.0,Calm,Calm,-,N/A,,Mostly Cloudy,0,2013-09-25 04:58:00
1:58 AM,52.5,47.8,84,29.96,10.0,Calm,Calm,-,N/A,,Scattered Clouds,0,2013-09-25 05:58:00
2:58 AM,53.1,47.7,82,29.94,10.0,Calm,Calm,-,N/A,,Clear,0,2013-09-25 06:58:00
3:58 AM,53.2,48.0,82,29.93,10.0,NE,4.6,-,N/A,,Mostly Cloudy,40,2013-09-25 07:58:00
4:58 AM,52.9,48.9,86,29.91,10.0,NNE,2.3,-,N/A,,Partly Cloudy,20,2013-09-25 08:58:00
5:58 AM,52.0,48.2,87,29.93,10.0,NE,3.5,-,N/A,,Mostly Cloudy,40,2013-09-25 09:58:00
6:58 AM,50.9,48.2,90,29.94,10.0,NE,4.6,-,N/A,,Clear,50,2013-09-25 10:58:00
7:58 AM,51.4,48.0,88,29.96,10.0,NNE,5.8,-,N/A,,Clear,20,2013-09-25 11:58:00
8:58 AM,53.4,49.1,85,29.96,10.0,NE,3.5,-,N/A,,Clear,40,2013-09-25 12:58:00
9:58 AM,58.5,51.4,77,29.96,10.0,NNE,4.6,-,N/A,,Clear,30,2013-09-25 13:58:00
10:58 AM,63.5,52.3,67,29.97,10.0,NNE,4.6,-,N/A,,Clear,30,2013-09-25 14:58:00
11:58 AM,64.2,52.5,66,29.97,10.0,NE,6.9,-,N/A,,Clear,40,2013-09-25 15:58:00
12:58 PM,65.7,52.0,61,29.96,10.0,NE,6.9,-,N/A,,Mostly Cloudy,50,2013-09-25 16:58:00
1:58 PM,67.5,52.3,58,29.94,10.0,East,6.9,-,N/A,,Mostly Cloudy,80,2013-09-25 17:58:00
2:58 PM,68.0,52.9,58,29.93,10.0,NNW,2.3,-,N/A,,Partly Cloudy,330,2013-09-25 18:58:00
3:58 PM,70.2,50.9,50,29.91,10.0,NE,9.2,-,N/A,,Clear,50,2013-09-25 19:58:00
4:58 PM,72.0,48.6,43,29.91,10.0,ENE,3.5,-,N/A,,Clear,70,2013-09-25 20:58:00
5:58 PM,71.8,47.3,42,29.91,10.0,NNE,3.5,-,N/A,,Clear,20,2013-09-25 21:58:00
6:58 PM,70.2,50.4,49,29.91,10.0,NNE,4.6,-,N/A,,Clear,20,2013-09-25 22:58:00
7:58 PM,62.2,53.8,74,29.92,10.0,Calm,Calm,-,N/A,,Partly Cloudy,0,2013-09-25 23:58:00
8:58 PM,59.9,50.2,70,29.93,10.0,Calm,Calm,-,N/A,,Clear,0,2013-09-26 00:58:00
9:58 PM,56.5,50.4,80,29.94,10.0,Variable,2.3,-,N/A,,Clear,0,2013-09-26 01:58:00
10:58 PM,53.6,50.0,88,29.96,10.0,NNE,1.2,-,N/A,,Clear,30,2013-09-26 02:58:00
11:58 PM,54.1,50.2,86,29.96,10.0,North,1.2,-,N/A,,Clear,10,2013-09-26 03:58:00